When you browse on this site, cookies collect data to enhance your experience and personalize the content and advertising you see.
Visit our Privacy Policy to learn more. By continuing to use the site, you agree to this use of cookies and data.
  • In Romania
  • List of Countries
  • For 7 days
  • Water Temperature
  • Weather Map
  • Weather Widgets
  • user-avatar
    Login

    Hourly Weather Tinheyri

    Today, 24 August, Saturday

    Time Temperature Precipitation Wind Pressure Humidity
    00:00 +8°C° 0 mm 0 mps 733 mmHg 92%
    01:00 +8°C° 0 mm 0 mps 733 mmHg 91%
    02:00 +8°C° 0 mm 0 mps 733 mmHg 91%
    03:00 +8°C° 0 mm 0 mps 733 mmHg 91%
    04:00 +8°C° 0 mm 0 mps 733 mmHg 91%
    05:00 +8°C° 0 mm 0 mps 733 mmHg 87%
    06:00 +10°C° 0 mm 1 mps 733 mmHg 84%
    07:00 +11°C° 0 mm 1 mps 733 mmHg 80%
    08:00 +11°C° 0 mm 1 mps 733 mmHg 78%
    09:00 +12°C° 0 mm 1 mps 733 mmHg 75%
    10:00 +12°C° 0 mm 1 mps 733 mmHg 72%
    11:00 +12°C° 0.1 mm 1 mps 733 mmHg 73%
    12:00 +12°C° 0.1 mm 2 mps 733 mmHg 73%
    13:00 +12°C° 0.1 mm 2 mps 733 mmHg 74%
    14:00 +12°C° 0.1 mm 2 mps 733 mmHg 74%
    15:00 +12°C° 0.1 mm 2 mps 733 mmHg 75%
    16:00 +12°C° 0.1 mm 2 mps 733 mmHg 76%
    17:00 +10°C° 0.1 mm 2 mps 733 mmHg 79%
    18:00 +11°C° 0.1 mm 1 mps 733 mmHg 83%
    19:00 +10°C° 0.1 mm 1 mps 733 mmHg 86%
    20:00 +9°C° 0 mm 1 mps 733 mmHg 88%
    21:00 +9°C° 0 mm 1 mps 732 mmHg 90%
    22:00 +8°C° 0 mm 1 mps 732 mmHg 92%
    23:00 +8°C° 0 mm 1 mps 732 mmHg 92%

    Tomorrow, 25 August, Sunday

    Time Temperature Precipitation Wind Pressure Humidity
    00:00 +8°C° 0 mm 1 mps 732 mmHg 91%
    01:00 +8°C° 0 mm 1 mps 732 mmHg 91%
    02:00 +8°C° 0 mm 1 mps 731 mmHg 91%
    03:00 +8°C° 0 mm 1 mps 731 mmHg 91%
    04:00 +8°C° 0 mm 1 mps 730 mmHg 91%
    05:00 +9°C° 0 mm 1 mps 730 mmHg 89%
    06:00 +9°C° 0 mm 1 mps 729 mmHg 87%
    07:00 +9°C° 0 mm 1 mps 729 mmHg 85%
    08:00 +9°C° 0 mm 2 mps 728 mmHg 79%
    09:00 +10°C° 0 mm 2 mps 728 mmHg 74%
    10:00 +10°C° 0 mm 2 mps 727 mmHg 69%
    11:00 +10°C° 0 mm 3 mps 726 mmHg 69%
    12:00 +10°C° 0 mm 4 mps 726 mmHg 70%
    13:00 +10°C° 0 mm 5 mps 725 mmHg 71%
    14:00 +9°C° 0.4 mm 6 mps 724 mmHg 75%
    15:00 +8°C° 0.4 mm 7 mps 722 mmHg 80%
    16:00 +6°C° 0.4 mm 8 mps 721 mmHg 85%
    17:00 +6°C° 1.8 mm 8 mps 720 mmHg 86%
    18:00 +6°C° 1.8 mm 9 mps 719 mmHg 88%
    19:00 +5°C° 1.8 mm 9 mps 718 mmHg 90%
    20:00 +6°C° 1.2 mm 9 mps 718 mmHg 91%
    21:00 +6°C° 1.2 mm 8 mps 717 mmHg 91%
    22:00 +6°C° 1.2 mm 7 mps 716 mmHg 91%
    23:00 +7°C° 0.7 mm 6 mps 715 mmHg 92%

    Day after tomorrow, 26 August, Monday

    Time Temperature Precipitation Wind Pressure Humidity
    00:00 +7°C° 0.7 mm 5 mps 715 mmHg 92%
    01:00 +7°C° 0.7 mm 4 mps 714 mmHg 93%
    02:00 +7°C° 0.1 mm 4 mps 714 mmHg 93%
    03:00 +7°C° 0.1 mm 4 mps 713 mmHg 92%
    04:00 +7°C° 0.1 mm 4 mps 713 mmHg 92%
    05:00 +7°C° 0.4 mm 4 mps 713 mmHg 90%
    06:00 +7°C° 0.4 mm 5 mps 713 mmHg 88%
    07:00 +8°C° 0.4 mm 5 mps 712 mmHg 86%
    08:00 +8°C° 0.2 mm 5 mps 712 mmHg 84%
    09:00 +8°C° 0.2 mm 5 mps 712 mmHg 82%
    10:00 +9°C° 0.2 mm 5 mps 712 mmHg 80%
    11:00 +10°C° 0.2 mm 4 mps 712 mmHg 79%
    12:00 +10°C° 0.2 mm 4 mps 712 mmHg 79%
    13:00 +10°C° 0.2 mm 4 mps 713 mmHg 78%
    14:00 +10°C° 0.6 mm 4 mps 713 mmHg 82%
    15:00 +8°C° 0.6 mm 4 mps 713 mmHg 85%
    16:00 +8°C° 0.6 mm 4 mps 713 mmHg 89%
    17:00 +9°C° 0.7 mm 3 mps 714 mmHg 89%
    18:00 +9°C° 0.7 mm 3 mps 714 mmHg 89%
    19:00 +9°C° 0.7 mm 2 mps 715 mmHg 90%
    20:00 +8°C° 0.2 mm 2 mps 715 mmHg 91%
    21:00 +8°C° 0.2 mm 2 mps 715 mmHg 92%
    22:00 +7°C° 0.2 mm 2 mps 716 mmHg 93%
    23:00 +7°C° 1.4 mm 2 mps 716 mmHg 93%

    27 August, Tuesday

    Time Temperature Precipitation Wind Pressure Humidity
    00:00 +7°C° 1.4 mm 3 mps 716 mmHg 92%
    01:00 +7°C° 1.4 mm 3 mps 716 mmHg 92%
    02:00 +7°C° 0.2 mm 2 mps 716 mmHg 92%
    03:00 +7°C° 0.2 mm 2 mps 716 mmHg 92%
    04:00 +7°C° 0.2 mm 2 mps 716 mmHg 92%
    05:00 +7°C° 0.2 mm 2 mps 716 mmHg 90%
    06:00 +7°C° 0.2 mm 2 mps 717 mmHg 89%
    07:00 +7°C° 0.2 mm 3 mps 717 mmHg 88%
    08:00 +7°C° 1.1 mm 2 mps 717 mmHg 89%
    09:00 +7°C° 1.1 mm 2 mps 717 mmHg 90%
    10:00 +7°C° 1.1 mm 2 mps 718 mmHg 91%
    11:00 +8°C° 1.8 mm 2 mps 718 mmHg 93%
    12:00 +8°C° 1.8 mm 2 mps 718 mmHg 94%
    13:00 +8°C° 1.8 mm 2 mps 718 mmHg 95%
    14:00 +8°C° 1.2 mm 2 mps 718 mmHg 96%
    15:00 +8°C° 1.2 mm 2 mps 719 mmHg 96%
    16:00 +8°C° 1.2 mm 2 mps 719 mmHg 96%
    17:00 +8°C° 1.1 mm 2 mps 719 mmHg 97%
    18:00 +8°C° 1.1 mm 2 mps 720 mmHg 97%
    19:00 +7°C° 1.1 mm 3 mps 720 mmHg 97%
    20:00 +7°C° 0.6 mm 3 mps 720 mmHg 97%
    21:00 +7°C° 0.6 mm 3 mps 720 mmHg 97%
    22:00 +7°C° 0.6 mm 3 mps 721 mmHg 97%
    23:00 +7°C° 0.6 mm 3 mps 721 mmHg 97%

    28 August, Wednesday

    Time Temperature Precipitation Wind Pressure Humidity
    00:00 +7°C° 0.6 mm 2 mps 721 mmHg 97%
    01:00 +7°C° 0.6 mm 2 mps 721 mmHg 97%
    02:00 +7°C° 0.3 mm 2 mps 721 mmHg 97%
    03:00 +6°C° 0.3 mm 2 mps 721 mmHg 97%
    04:00 +7°C° 0.3 mm 1 mps 721 mmHg 97%
    05:00 +7°C° 0.2 mm 1 mps 722 mmHg 96%
    06:00 +8°C° 0.2 mm 1 mps 722 mmHg 95%
    07:00 +8°C° 0.2 mm 1 mps 723 mmHg 94%
    08:00 +8°C° 0.1 mm 1 mps 723 mmHg 92%
    09:00 +7°C° 0.1 mm 2 mps 723 mmHg 90%
    10:00 +7°C° 0.1 mm 2 mps 723 mmHg 87%
    11:00 +8°C° 0.1 mm 2 mps 723 mmHg 84%
    12:00 +9°C° 0.1 mm 1 mps 724 mmHg 81%
    13:00 +9°C° 0.1 mm 1 mps 724 mmHg 78%
    14:00 +8°C° 0.1 mm 2 mps 724 mmHg 76%
    15:00 +9°C° 0.1 mm 2 mps 724 mmHg 73%
    16:00 +9°C° 0.1 mm 2 mps 724 mmHg 71%
    17:00 +8°C° 0.1 mm 2 mps 725 mmHg 75%
    18:00 +8°C° 0.1 mm 2 mps 725 mmHg 78%
    19:00 +7°C° 0.1 mm 2 mps 725 mmHg 82%
    20:00 +7°C° 0.1 mm 2 mps 726 mmHg 85%
    21:00 +7°C° 0.1 mm 2 mps 726 mmHg 87%
    22:00 +7°C° 0.1 mm 2 mps 726 mmHg 90%
    23:00 +7°C° 0.3 mm 2 mps 726 mmHg 91%

    29 August, Thursday

    Time Temperature Precipitation Wind Pressure Humidity
    00:00 +7°C° 0.3 mm 2 mps 726 mmHg 92%
    01:00 +5°C° 0.3 mm 3 mps 727 mmHg 94%
    02:00 +5°C° 0.5 mm 3 mps 727 mmHg 94%
    03:00 +5°C° 0.5 mm 4 mps 727 mmHg 94%
    04:00 +5°C° 0.5 mm 4 mps 727 mmHg 94%
    05:00 +4°C° 0.2 mm 4 mps 728 mmHg 93%
    06:00 +3°C° 0.2 mm 5 mps 728 mmHg 93%
    07:00 +3°C° 0.2 mm 5 mps 728 mmHg 92%
    08:00 +3°C° 0 mm 5 mps 729 mmHg 91%
    09:00 +3°C° 0 mm 5 mps 729 mmHg 90%
    10:00 +3°C° 0 mm 5 mps 729 mmHg 89%
    11:00 +5°C° 0 mm 5 mps 729 mmHg 88%
    12:00 +5°C° 0 mm 5 mps 730 mmHg 87%
    13:00 +5°C° 0 mm 4 mps 730 mmHg 86%
    14:00 +5°C° 0 mm 4 mps 730 mmHg 86%
    15:00 +5°C° 0 mm 4 mps 730 mmHg 86%
    16:00 +5°C° 0 mm 4 mps 730 mmHg 86%
    17:00 +5°C° 0.1 mm 4 mps 730 mmHg 88%
    18:00 +5°C° 0.1 mm 4 mps 730 mmHg 90%
    19:00 +4°C° 0.1 mm 4 mps 731 mmHg 92%
    20:00 +4°C° 0.1 mm 4 mps 731 mmHg 92%
    21:00 +5°C° 0.1 mm 4 mps 731 mmHg 93%
    22:00 +5°C° 0.1 mm 4 mps 731 mmHg 93%
    23:00 +5°C° 0 mm 4 mps 731 mmHg 93%
    Show more